Voltar ao catálogo

STARLINK-34437

AtivoComunicaçõesVLEO
NORAD 64346·PAYLOAD·🇺🇸 United States

Lançado Jun 13, 2025 de Vandenberg Space Force Base

Loading…

Próximas Passagens (próximas 24 horas)

TLE

AtualizadoSource: CelesTrak SupGP

Época: Sep 15, 2026, 02:39 UTC

1 64346C 25126C   26258.11090278 -.00015490  00000+0 -53873-3 0  2587
2 64346  70.0003 275.4645 0003241 266.9096 335.6620 15.29593243    15

Acompanhe STARLINK-34437 em tempo real com AllMySat

Download on the App Store